Weather History for KCVN - November, 2013

Change the Weather History Date:

Wednesday, November 13, 2013

  Actual Average Record
Temperature  
Mean Temperature 45 °F -  
Max Temperature 60 °F 61 °F 82 °F (1967)
Min Temperature 30 °F 34 °F 10 °F (1940)
Degree Days  
Heating Degree Days 20    
Moisture  
Dew Point 28 °F    
Average Humidity 58    
Maximum Humidity 80    
Minimum Humidity 39    
Precipitation  
Precipitation 0.00 in - - ()
Sea Level Pressure  
Sea Level Pressure 30.39 in    
Wind  
Wind Speed 10 mph (SW)    
Max Wind Speed 21 mph    
Max Gust Speed 28 mph    
Visibility 10 miles    
Events      
Averages and records for this station are not official NWS values.
T = Trace of Precipitation, MM = Missing Value Source: NWS Daily Summary

Daily Weather History Graph

Daily Weather History Graph

Search for Another Location

Airport or City:

Trip Planner

Search our weather history database for the weather conditions in past years. The results will help you decide how hot, cold, wet, or windy it might be!

Date:

Astronomy

Nov. 13, 2013 Rise Set
Actual Time 6:24 AM MST 4:48 PM MST
Civil Twilight 5:57 AM MST 5:15 PM MST
Nautical Twilight 5:27 AM MST 5:45 PM MST
Astronomical Twilight 4:57 AM MST 6:15 PM MST
Moon 2:29 PM MST (11/13) 2:28 AM MST (11/13)
Length of Visible Light 11h 18m
Length of Day
10h 24m
Waxing Gibbous, 85% of the Moon is Illuminated
Nov 13
Waxing Gibbous
Nov 17
Full
Nov 25
Last Quarter
Dec 2
New
Dec 9
First Quarter

Hourly Weather History & Observations

Time (MST) Temp. Windchill Dew Point Humidity Pressure Visibility Wind Dir Wind Speed Gust Speed Precip Events Conditions
12:15 AM 32.0 °F 24.8 °F 23.0 °F 69% 30.61 in 10.0 mi WSW 8.1 mph - N/A   Clear
12:35 AM 30.2 °F 23.4 °F 21.2 °F 69% 30.61 in 10.0 mi WSW 6.9 mph - N/A   Clear
12:55 AM 30.2 °F 23.4 °F 23.0 °F 75% 30.60 in 10.0 mi West 6.9 mph - N/A   Clear
1:15 AM 30.2 °F 23.4 °F 23.0 °F 75% 30.59 in 10.0 mi WSW 6.9 mph - N/A   Clear
1:35 AM 30.2 °F 23.4 °F 24.8 °F 80% 30.58 in 10.0 mi WSW 6.9 mph - N/A   Clear
1:55 AM 30.2 °F 22.6 °F 23.0 °F 75% 30.57 in 10.0 mi WSW 8.1 mph - N/A   Partly Cloudy
2:15 AM 30.2 °F 24.3 °F 23.0 °F 75% 30.57 in 10.0 mi WSW 5.8 mph - N/A   Partly Cloudy
2:35 AM 30.2 °F 23.4 °F 24.8 °F 80% 30.56 in 10.0 mi WSW 6.9 mph - N/A   Clear
2:55 AM 30.2 °F 24.3 °F 24.8 °F 80% 30.55 in 10.0 mi West 5.8 mph - N/A   Clear
3:15 AM 30.2 °F 23.4 °F 24.8 °F 80% 30.54 in 10.0 mi West 6.9 mph - N/A   Clear
3:35 AM 32.0 °F 25.6 °F 24.8 °F 75% 30.54 in 10.0 mi West 6.9 mph - N/A   Clear
3:55 AM 32.0 °F 25.6 °F 26.6 °F 80% 30.53 in 10.0 mi WSW 6.9 mph - N/A   Clear
4:15 AM 30.2 °F 23.4 °F 23.0 °F 75% 30.52 in 10.0 mi WSW 6.9 mph - N/A   Clear
4:35 AM 30.2 °F 22.6 °F 24.8 °F 80% 30.51 in 10.0 mi WSW 8.1 mph - N/A   Clear
4:55 AM 32.0 °F 25.6 °F 26.6 °F 80% 30.51 in 10.0 mi West 6.9 mph - N/A   Clear
5:15 AM 32.0 °F 28.7 °F 24.8 °F 75% 30.51 in 10.0 mi West 3.5 mph - N/A   Clear
5:35 AM 30.2 °F 24.3 °F 24.8 °F 80% 30.50 in 10.0 mi West 5.8 mph - N/A   Clear
5:55 AM 30.2 °F 23.4 °F 24.8 °F 80% 30.50 in 10.0 mi West 6.9 mph - N/A   Clear
6:15 AM 32.0 °F 25.6 °F 24.8 °F 75% 30.50 in 10.0 mi West 6.9 mph - N/A   Clear
6:35 AM 33.8 °F 26.4 °F 24.8 °F 70% 30.50 in 10.0 mi West 9.2 mph - N/A   Clear
6:55 AM 33.8 °F 30.8 °F 24.8 °F 70% 30.50 in 10.0 mi South 3.5 mph - N/A   Clear
7:15 AM 32.0 °F 28.7 °F 26.6 °F 80% 30.51 in 10.0 mi South 3.5 mph - N/A   Clear
7:35 AM 35.6 °F 29.9 °F 26.6 °F 70% 30.51 in 10.0 mi SSW 6.9 mph - N/A   Clear
7:55 AM 37.4 °F 30.8 °F 28.4 °F 70% 30.51 in 10.0 mi SW 9.2 mph - N/A   Clear
8:15 AM 41.0 °F 33.9 °F 26.6 °F 57% 30.50 in 10.0 mi SW 12.7 mph - N/A   Clear
8:35 AM 42.8 °F 35.4 °F 28.4 °F 57% 30.51 in 10.0 mi SW 15.0 mph - N/A   Clear
8:55 AM 44.6 °F 37.8 °F 28.4 °F 53% 30.50 in 10.0 mi SW 15.0 mph - N/A   Clear
9:15 AM 46.4 °F 39.8 °F 30.2 °F 53% 30.50 in 10.0 mi SW 16.1 mph - N/A   Clear
9:35 AM 48.2 °F - 30.2 °F 50% 30.50 in 10.0 mi SW 12.7 mph 18.4 mph N/A   Clear
9:55 AM 50.0 °F - 32.0 °F 50% 30.48 in 10.0 mi SW 17.3 mph 25.3 mph N/A   Clear
10:15 AM 51.8 °F - 32.0 °F 47% 30.47 in 10.0 mi SW 15.0 mph 23.0 mph N/A   Clear
10:35 AM 51.8 °F - 33.8 °F 50% 30.46 in 10.0 mi SW 20.7 mph 26.5 mph N/A   Clear
10:55 AM 53.6 °F - 35.6 °F 51% 30.45 in 10.0 mi SW 20.7 mph 26.5 mph N/A   Clear
11:15 AM 53.6 °F - 35.6 °F 51% 30.43 in 10.0 mi WSW 18.4 mph 26.5 mph N/A   Clear
11:35 AM 55.4 °F - 35.6 °F 47% 30.42 in 10.0 mi SW 17.3 mph 27.6 mph N/A   Clear
11:55 AM 55.4 °F - 35.6 °F 47% 30.40 in 10.0 mi SW 19.6 mph 23.0 mph N/A   Clear
12:15 PM 57.2 °F - 35.6 °F 44% 30.39 in 10.0 mi SW 17.3 mph 26.5 mph N/A   Clear
12:35 PM 57.2 °F - 35.6 °F 44% 30.37 in 10.0 mi SW 19.6 mph 24.2 mph N/A   Clear
12:55 PM 59.0 °F - 35.6 °F 42% 30.36 in 10.0 mi SSW 13.8 mph 21.9 mph N/A   Clear
1:15 PM 59.0 °F - 35.6 °F 42% 30.35 in 10.0 mi SSW 19.6 mph 23.0 mph N/A   Clear
1:35 PM 59.0 °F - 35.6 °F 42% 30.33 in 10.0 mi SSW 18.4 mph 24.2 mph N/A   Clear
1:55 PM 60.8 °F - 35.6 °F 39% 30.32 in 10.0 mi SW 18.4 mph 26.5 mph N/A   Clear
2:15 PM 60.8 °F - 35.6 °F 39% 30.31 in 10.0 mi SW 18.4 mph 24.2 mph N/A   Clear
2:35 PM 60.8 °F - 35.6 °F 39% 30.31 in 10.0 mi SSW 20.7 mph 25.3 mph N/A   Clear
2:55 PM 60.8 °F - 35.6 °F 39% 30.30 in 10.0 mi SW 18.4 mph 24.2 mph N/A   Clear
3:15 PM 59.0 °F - 35.6 °F 42% 30.29 in 10.0 mi SW 20.7 mph 24.2 mph N/A   Clear
3:35 PM 59.0 °F - 35.6 °F 42% 30.29 in 10.0 mi SW 18.4 mph 23.0 mph N/A   Clear
3:55 PM 57.2 °F - 33.8 °F 41% 30.28 in 10.0 mi SW 17.3 mph - N/A   Clear
4:15 PM 57.2 °F - 33.8 °F 41% 30.27 in 10.0 mi SSW 17.3 mph - N/A   Clear
4:35 PM 55.4 °F - 32.0 °F 41% 30.27 in 10.0 mi SSW 15.0 mph - N/A   Clear
4:55 PM 51.8 °F - 30.2 °F 44% 30.27 in 10.0 mi SSW 12.7 mph - N/A   Clear
5:15 PM 51.8 °F - 28.4 °F 41% 30.27 in 10.0 mi SSW 12.7 mph - N/A   Clear
5:35 PM 48.2 °F - 28.4 °F 46% 30.27 in 10.0 mi South 9.2 mph - N/A   Clear
5:55 PM 46.4 °F 41.5 °F 26.6 °F 46% 30.28 in 10.0 mi South 10.4 mph - N/A   Clear
6:15 PM 44.6 °F 39.2 °F 26.6 °F 49% 30.27 in 10.0 mi South 10.4 mph - N/A   Clear
6:35 PM 42.8 °F 37.0 °F 24.8 °F 49% 30.27 in 10.0 mi South 10.4 mph - N/A   Clear
6:55 PM 42.8 °F 37.0 °F 24.8 °F 49% 30.27 in 10.0 mi SSW 10.4 mph - N/A   Clear
7:15 PM 42.8 °F 37.0 °F 23.0 °F 46% 30.27 in 10.0 mi South 10.4 mph - N/A   Clear
7:35 PM 42.8 °F 36.2 °F 24.8 °F 49% 30.26 in 10.0 mi SSW 12.7 mph - N/A   Clear
7:55 PM 42.8 °F 36.6 °F 23.0 °F 46% 30.26 in 10.0 mi SSW 11.5 mph - N/A   Clear
8:15 PM 41.0 °F 34.7 °F 24.8 °F 53% 30.26 in 10.0 mi SSW 10.4 mph - N/A   Clear
8:35 PM 37.4 °F 31.4 °F 21.2 °F 52% 30.26 in 10.0 mi SW 8.1 mph - N/A   Clear
8:55 PM 37.4 °F 32.1 °F 23.0 °F 56% 30.25 in 10.0 mi SSW 6.9 mph - N/A   Clear
9:15 PM 35.6 °F 29.9 °F 23.0 °F 60% 30.24 in 10.0 mi SSW 6.9 mph - N/A   Clear
9:35 PM 35.6 °F 28.6 °F 21.2 °F 56% 30.24 in 10.0 mi SSW 9.2 mph - N/A   Clear
9:55 PM 35.6 °F 29.2 °F 21.2 °F 56% 30.23 in 10.0 mi SSW 8.1 mph - N/A   Clear
10:15 PM 35.6 °F 29.2 °F 23.0 °F 60% 30.22 in 10.0 mi SSW 8.1 mph - N/A   Clear
10:35 PM 35.6 °F 28.6 °F 23.0 °F 60% 30.22 in 10.0 mi SW 9.2 mph - N/A   Clear
10:55 PM 35.6 °F 29.2 °F 24.8 °F 65% 30.21 in 10.0 mi SW 8.1 mph - N/A   Clear
11:15 PM 37.4 °F 30.3 °F 24.8 °F 60% 30.20 in 10.0 mi SW 10.4 mph - N/A   Clear
11:35 PM 39.2 °F 32.0 °F 24.8 °F 56% 30.19 in 10.0 mi SW 11.5 mph - N/A   Clear
11:55 PM 39.2 °F 32.0 °F 26.6 °F 61% 30.18 in 10.0 mi SSW 11.5 mph - N/A   Clear